START_TIME,STEP,MOV.,M29,t_acc.,H22,t_acc.,H26,t_acc.,H30,t_acc.
1989-08-27T00:00:32.510 ,1,0,0.,24.0,0.,24.0,0.,24.0,0.,24.0
1989-08-27T00:00:56.510 ,2,1,0.,24.0,0.,24.0,0.,24.0,0.,24.0
1989-08-27T00:01:20.510 ,2,0,0.,24.0,0.,24.0,0.,24.0,0.,24.0
1989-08-27T00:01:44.510 ,3,1,0.,24.0,0.,24.0,0.,24.0,0.,24.0
1989-08-27T00:02:08.510 ,3,0,0.,24.0,0.,24.0,0.,24.0,0.,24.0
1989-08-27T00:02:32.510 ,4,1,0.,24.0,0.,24.0,0.,24.0,0.,24.0
1989-08-27T00:02:56.510 ,4,0,0.,24.0,0.,24.0,0.,24.0,0.,24.0
1989-08-27T00:03:20.510 ,5,1,0.,24.0,0.,24.0,0.,24.0,0.,24.0
1989-08-27T00:03:44.510 ,5,0,0.,24.0,0.,24.0,0.,24.0,0.,24.0
1989-08-27T00:04:08.510 ,6,1,0.,24.0,0.,24.0,0.,24.0,0.,24.0
1989-08-27T00:04:32.510 ,6,0,0.,24.0,0.,24.0,0.,24.0,0.,24.0
1989-08-27T00:04:56.510 ,7,1,0.,24.0,0.,24.0,0.,24.0,0.,24.0
1989-08-27T00:05:20.510 ,7,0,0.,24.0,0.,24.0,0.,24.0,0.,24.0
1989-08-27T00:05:44.510 ,7,1,0.,24.0,0.,24.0,0.,24.0,0.,24.0
1989-08-27T00:06:08.510 ,7,0,0.,24.0,0.,24.0,0.,24.0,0.,24.0
1989-08-27T00:06:32.510 ,6,1,0.,24.0,0.,24.0,0.,24.0,0.,24.0
1989-08-27T00:06:56.510 ,6,0,0.,24.0,0.,24.0,0.,24.0,0.,24.0
1989-08-27T00:07:20.510 ,5,1,0.,24.0,0.,24.0,0.,24.0,0.,24.0
1989-08-27T00:07:44.510 ,5,0,0.,24.0,0.,24.0,0.,24.0,0.,24.0
1989-08-27T00:08:08.510 ,4,1,0.,24.0,0.,24.0,0.,24.0,0.,24.0
1989-08-27T00:08:32.510 ,4,0,0.,24.0,0.,24.0,0.,24.0,0.,24.0
1989-08-27T00:08:56.510 ,3,1,0.,24.0,0.,24.0,0.,24.0,0.,24.0
1989-08-27T00:09:20.510 ,3,0,0.,24.0,0.,24.0,0.,24.0,0.,24.0
1989-08-27T00:09:44.510 ,2,1,0.,24.0,0.,24.0,0.,24.0,0.,24.0
1989-08-27T00:10:08.510 ,2,0,0.,24.0,0.,24.0,0.,24.0,0.,24.0
1989-08-27T00:10:32.510 ,1,1,0.,24.0,0.,24.0,0.,24.0,0.,24.0
1989-08-27T00:10:56.510 ,1,0,0.,24.0,0.,24.0,0.,24.0,0.,24.0
1989-08-27T00:11:20.510 ,0,1,0.,24.0,0.,24.0,0.,24.0,0.,24.0
1989-08-27T00:11:44.510 ,0,0,0.,24.0,0.,24.0,0.,24.0,0.,24.0
1989-08-27T00:12:08.510 ,0,1,0.,24.0,0.,24.0,0.,24.0,0.,24.0
1989-08-27T00:12:32.510 ,0,0,0.,24.0,0.,24.0,0.,24.0,0.,24.0
1989-08-27T00:12:56.510 ,1,1,0.,24.0,0.,24.0,0.,24.0,0.,24.0
1989-08-27T00:13:20.510 ,1,0,0.,24.0,0.,24.0,0.,24.0,0.,24.0
1989-08-27T00:13:44.510 ,2,1,0.,24.0,0.,24.0,0.,24.0,0.,24.0
1989-08-27T00:14:08.510 ,2,0,0.,24.0,0.,24.0,0.,24.0,0.,24.0
1989-08-27T00:14:32.510 ,3,1,0.,24.0,0.,24.0,0.,24.0,0.,24.0
1989-08-27T00:14:56.510 ,3,0,0.,24.0,0.,24.0,0.,24.0,0.,24.0
1989-08-27T00:15:20.510 ,4,1,0.,24.0,0.,24.0,0.,24.0,0.,24.0
1989-08-27T00:15:44.510 ,4,0,0.,24.0,0.,24.0,0.,24.0,0.,24.0
1989-08-27T00:16:08.510 ,5,1,0.,24.0,0.,24.0,0.,24.0,0.,24.0
1989-08-27T00:16:32.510 ,5,0,0.,24.0,0.,24.0,0.,24.0,0.,24.0
1989-08-27T00:16:56.510 ,6,1,0.,24.0,0.,24.0,0.,24.0,0.,24.0
1989-08-27T00:17:20.510 ,6,0,0.,24.0,0.,24.0,0.,24.0,0.,24.0
1989-08-27T00:17:44.510 ,7,1,0.,24.0,0.,24.0,0.,24.0,0.,24.0
1989-08-27T00:18:08.510 ,7,0,0.,24.0,0.,24.0,0.,24.0,0.,24.0
1989-08-27T00:18:32.510 ,7,1,0.,24.0,0.,24.0,0.,24.0,0.,24.0
1989-08-27T00:18:56.510 ,7,0,0.,24.0,0.,24.0,0.,24.0,0.,24.0
1989-08-27T00:19:20.510 ,6,1,0.,24.0,0.,24.0,0.,24.0,0.,24.0
1989-08-27T00:19:44.510 ,6,0,0.,24.0,0.,24.0,0.,24.0,0.,24.0
1989-08-27T00:20:08.510 ,5,1,0.,24.0,0.,24.0,0.,24.0,0.,24.0
1989-08-27T00:20:32.510 ,5,0,0.,24.0,0.,24.0,0.,24.0,0.,24.0
1989-08-27T00:20:56.510 ,4,1,0.,24.0,0.,24.0,0.,24.0,0.,24.0
1989-08-27T00:21:20.510 ,4,0,0.,24.0,0.,24.0,0.,24.0,0.,24.0
1989-08-27T00:21:44.510 ,3,1,0.,24.0,0.,24.0,0.,24.0,0.,24.0
1989-08-27T00:22:08.510 ,3,0,0.,24.0,0.,24.0,0.,24.0,0.,24.0
1989-08-27T00:22:32.510 ,2,1,0.,24.0,0.,24.0,0.,24.0,0.,24.0
1989-08-27T00:22:56.510 ,2,0,0.,24.0,0.,24.0,0.,24.0,0.,24.0
1989-08-27T00:23:20.510 ,1,1,0.,24.0,0.,24.0,0.,24.0,0.,24.0
1989-08-27T00:23:44.510 ,1,0,0.,24.0,0.,24.0,0.,24.0,0.,24.0
1989-08-27T00:24:08.510 ,0,1,0.,24.0,0.,24.0,0.,24.0,0.,24.0
1989-08-27T00:24:32.510 ,0,0,0.,24.0,0.,24.0,0.,24.0,0.,24.0
1989-08-27T00:24:56.500 ,0,1,0.,24.0,0.,24.0,0.,24.0,0.,24.0
1989-08-27T00:25:20.500 ,0,0,0.,24.0,0.,24.0,0.,24.0,0.,24.0
1989-08-27T00:25:44.500 ,1,1,0.,24.0,0.,24.0,0.,24.0,0.,24.0
1989-08-27T00:26:08.500 ,1,0,0.,24.0,0.,24.0,0.,24.0,0.,24.0
1989-08-27T00:26:32.500 ,2,1,0.,24.0,0.,24.0,0.,24.0,0.,24.0
1989-08-27T00:26:56.500 ,2,0,0.,24.0,0.,24.0,0.,24.0,0.,24.0
1989-08-27T00:27:20.500 ,3,1,0.,24.0,0.,24.0,0.,24.0,0.,24.0
1989-08-27T00:27:44.500 ,3,0,0.,24.0,0.,24.0,0.,24.0,0.,24.0
1989-08-27T00:28:08.500 ,4,1,0.,24.0,0.,24.0,0.,24.0,0.,24.0
1989-08-27T00:28:32.500 ,4,0,0.,24.0,0.,24.0,0.,24.0,0.,24.0
1989-08-27T00:28:56.500 ,5,1,0.,24.0,0.,24.0,0.,24.0,0.,24.0
1989-08-27T00:29:20.500 ,5,0,0.,24.0,0.,24.0,0.,24.0,0.,24.0
1989-08-27T00:29:44.500 ,6,1,0.,24.0,0.,24.0,0.,24.0,0.,24.0
1989-08-27T00:30:08.500 ,6,0,0.,24.0,0.,24.0,0.,24.0,0.,24.0
1989-08-27T00:30:32.500 ,7,1,0.,24.0,0.,24.0,0.,24.0,0.,24.0
1989-08-27T00:30:56.500 ,7,0,0.,24.0,0.,24.0,0.,24.0,0.,24.0
1989-08-27T00:31:20.500 ,7,1,0.,24.0,0.,24.0,0.,24.0,0.,24.0
1989-08-27T00:31:44.500 ,7,0,0.,24.0,0.,24.0,0.,24.0,0.,24.0
1989-08-27T00:32:08.500 ,6,1,0.,24.0,0.,24.0,0.,24.0,0.,24.0
1989-08-27T00:32:32.500 ,6,0,0.,24.0,0.,24.0,0.,24.0,0.,24.0
1989-08-27T00:32:56.500 ,5,1,0.,24.0,0.,24.0,0.,24.0,0.,24.0
1989-08-27T00:33:20.500 ,5,0,0.,24.0,0.,24.0,0.,24.0,0.,24.0
1989-08-27T00:33:44.500 ,4,1,0.,24.0,0.,24.0,0.,24.0,0.,24.0
1989-08-27T00:34:08.500 ,4,0,0.,24.0,0.,24.0,0.,24.0,0.,24.0
1989-08-27T00:34:32.500 ,3,1,0.,24.0,0.,24.0,0.,24.0,0.,24.0
1989-08-27T00:34:56.500 ,3,0,0.,24.0,0.,24.0,0.,24.0,0.,24.0
1989-08-27T00:35:20.500 ,2,1,0.,24.0,0.,24.0,0.,24.0,0.,24.0
1989-08-27T00:35:44.500 ,2,0,0.,24.0,0.,24.0,0.,24.0,0.,24.0
1989-08-27T00:36:08.500 ,1,1,0.,24.0,0.,24.0,0.,24.0,0.,24.0
1989-08-27T00:36:32.500 ,1,0,0.,24.0,0.,24.0,0.,24.0,0.,24.0
1989-08-27T00:36:56.500 ,0,1,0.,24.0,0.,24.0,0.,24.0,0.,24.0
1989-08-27T00:37:20.500 ,0,0,0.,24.0,0.,24.0,0.,24.0,0.,24.0
1989-08-27T00:37:44.500 ,0,1,0.,24.0,0.,24.0,0.,24.0,0.,24.0
1989-08-27T00:38:08.500 ,0,0,0.,24.0,0.,24.0,0.,24.0,0.,24.0
1989-08-27T00:38:32.500 ,1,1,0.,24.0,0.,24.0,0.,24.0,0.,24.0
1989-08-27T00:38:56.500 ,1,0,0.,24.0,0.,24.0,0.,24.0,0.,24.0
1989-08-27T00:39:20.500 ,2,1,0.,24.0,0.,24.0,0.,24.0,0.,24.0
1989-08-27T00:39:44.500 ,2,0,0.,24.0,0.,24.0,0.,24.0,0.,24.0
1989-08-27T00:40:08.500 ,3,1,0.,24.0,0.,24.0,0.,24.0,0.,24.0
1989-08-27T00:40:32.500 ,3,0,0.,24.0,0.,24.0,0.,24.0,0.,24.0
1989-08-27T00:40:56.500 ,4,1,0.,24.0,0.,24.0,0.,24.0,0.,24.0
1989-08-27T00:41:20.500 ,4,0,0.,24.0,0.,24.0,0.,24.0,0.,24.0
1989-08-27T00:41:44.500 ,5,1,0.,24.0,0.,24.0,0.,24.0,0.,24.0
1989-08-27T00:42:08.500 ,5,0,0.,24.0,0.,24.0,0.,24.0,0.,24.0
1989-08-27T00:42:32.500 ,6,1,0.,24.0,0.,24.0,0.,24.0,0.,24.0
1989-08-27T00:42:56.500 ,6,0,0.,24.0,0.,24.0,0.,24.0,0.,24.0
1989-08-27T00:43:20.500 ,7,1,0.,24.0,0.,24.0,0.,24.0,0.,24.0
1989-08-27T00:43:44.500 ,7,0,0.,24.0,0.,24.0,0.,24.0,0.,24.0
1989-08-27T00:44:08.500 ,7,1,0.,24.0,0.,24.0,0.,24.0,0.,24.0
1989-08-27T00:44:32.500 ,7,0,0.,24.0,0.,24.0,0.,24.0,0.,24.0
1989-08-27T00:44:56.500 ,6,1,0.,24.0,0.,24.0,0.,24.0,0.,24.0
1989-08-27T00:45:20.500 ,6,0,0.,24.0,0.,24.0,0.,24.0,0.,24.0
1989-08-27T00:45:44.500 ,5,1,0.,24.0,0.,24.0,0.,24.0,0.,24.0
1989-08-27T00:46:08.500 ,5,0,0.,24.0,0.,24.0,0.,24.0,0.,24.0
1989-08-27T00:46:32.500 ,4,1,0.,24.0,0.,24.0,0.,24.0,0.,24.0
1989-08-27T00:46:56.500 ,4,0,0.,24.0,0.,24.0,0.,24.0,0.,24.0
1989-08-27T00:47:20.500 ,3,1,0.,24.0,0.,24.0,0.,24.0,0.,24.0
1989-08-27T00:47:44.500 ,3,0,0.,24.0,0.,24.0,0.,24.0,0.,24.0
1989-08-27T00:48:08.500 ,2,1,0.,24.0,0.,24.0,0.,24.0,0.,24.0
1989-08-27T00:48:32.500 ,2,0,0.,24.0,0.,24.0,0.,24.0,0.,24.0
1989-08-27T00:48:56.500 ,1,1,0.,24.0,0.,24.0,0.,24.0,0.,24.0
1989-08-27T00:49:20.500 ,1,0,0.,24.0,0.,24.0,0.,24.0,0.,24.0
1989-08-27T00:49:44.500 ,0,1,0.,24.0,0.,24.0,0.,24.0,0.,24.0
1989-08-27T00:50:08.500 ,0,0,0.,24.0,0.,24.0,0.,24.0,0.,24.0
1989-08-27T00:50:32.500 ,0,1,0.,24.0,0.,24.0,0.,24.0,0.,24.0
1989-08-27T00:50:56.500 ,0,0,0.,24.0,0.,24.0,0.,24.0,0.,24.0
1989-08-27T00:51:20.500 ,1,1,0.,24.0,0.,24.0,0.,24.0,0.,24.0
1989-08-27T00:51:44.500 ,1,0,0.,24.0,0.,24.0,0.,24.0,0.,24.0
1989-08-27T00:52:08.500 ,2,1,0.,24.0,0.,24.0,0.,24.0,0.,24.0
1989-08-27T00:52:32.500 ,2,0,0.,24.0,0.,24.0,0.,24.0,0.,24.0
1989-08-27T00:52:56.500 ,3,1,0.,24.0,0.,24.0,0.,24.0,0.,24.0
1989-08-27T00:53:20.500 ,3,0,0.,24.0,0.,24.0,0.,24.0,0.,24.0
1989-08-27T00:53:44.500 ,4,1,0.,24.0,0.,24.0,0.,24.0,0.,24.0
1989-08-27T00:54:08.500 ,4,0,0.,24.0,0.,24.0,0.,24.0,0.,24.0
1989-08-27T00:54:32.500 ,5,1,0.,24.0,0.,24.0,0.,24.0,0.,24.0
1989-08-27T00:54:56.500 ,5,0,0.,24.0,0.,24.0,0.,24.0,0.,24.0
1989-08-27T00:55:20.500 ,6,1,0.,24.0,0.,24.0,0.,24.0,0.,24.0
1989-08-27T00:55:44.500 ,6,0,0.,24.0,0.,24.0,0.,24.0,0.,24.0
1989-08-27T00:56:08.500 ,7,1,0.,24.0,0.,24.0,0.,24.0,0.,24.0
1989-08-27T00:56:32.500 ,7,0,0.,24.0,0.,24.0,0.,24.0,0.,24.0
1989-08-27T00:56:56.500 ,7,1,0.,24.0,0.,24.0,0.,24.0,0.,24.0
1989-08-27T00:57:20.500 ,7,0,0.,24.0,0.,24.0,0.,24.0,0.,24.0
1989-08-27T00:57:44.500 ,6,1,0.,24.0,0.,24.0,0.,24.0,0.,24.0
1989-08-27T00:58:08.500 ,6,0,0.,24.0,0.,24.0,0.,24.0,0.,24.0
1989-08-27T00:58:32.500 ,5,1,0.,24.0,0.,24.0,0.,24.0,0.,24.0
1989-08-27T00:58:56.500 ,5,0,0.,24.0,0.,24.0,0.,24.0,0.,24.0
1989-08-27T00:59:20.500 ,4,1,0.,24.0,0.,24.0,0.,24.0,0.,24.0
1989-08-27T00:59:44.500 ,4,0,0.,24.0,0.,24.0,0.,24.0,0.,24.0
1989-08-27T01:00:08.500 ,3,1,0.,24.0,0.,24.0,0.,24.0,0.,24.0
1989-08-27T01:00:32.500 ,3,0,0.,24.0,0.,24.0,0.,24.0,0.,24.0
1989-08-27T01:00:56.500 ,2,1,0.,24.0,0.,24.0,0.,24.0,0.,24.0
1989-08-27T01:01:20.500 ,2,0,0.,24.0,0.,24.0,0.,24.0,0.,24.0
1989-08-27T01:01:44.500 ,1,1,0.,24.0,0.,24.0,0.,24.0,0.,24.0
1989-08-27T01:02:08.500 ,1,0,0.,24.0,0.,24.0,0.,24.0,0.,24.0
1989-08-27T01:02:32.500 ,0,1,0.,24.0,0.,24.0,0.,24.0,0.,24.0
1989-08-27T01:02:56.500 ,0,0,0.,24.0,0.,24.0,0.,24.0,0.,24.0
1989-08-27T01:03:20.500 ,0,1,0.,24.0,0.,24.0,0.,24.0,0.,24.0
1989-08-27T01:03:44.500 ,0,0,0.,24.0,0.,24.0,0.,24.0,0.,24.0
1989-08-27T01:04:08.500 ,1,1,0.,24.0,0.,24.0,0.,24.0,0.,24.0
1989-08-27T01:04:32.500 ,1,0,0.,24.0,0.,24.0,0.,24.0,0.,24.0
1989-08-27T01:04:56.500 ,2,1,0.,24.0,0.,24.0,0.,24.0,0.,24.0
1989-08-27T01:05:20.500 ,2,0,0.,24.0,0.,24.0,0.,24.0,0.,24.0
1989-08-27T01:05:44.500 ,3,1,0.,24.0,0.,24.0,0.,24.0,0.,24.0
1989-08-27T01:06:08.500 ,3,0,0.,24.0,0.,24.0,0.,24.0,0.,24.0
1989-08-27T01:06:32.500 ,4,1,0.,24.0,0.,24.0,0.,24.0,0.,24.0
1989-08-27T01:06:56.500 ,4,0,0.,24.0,0.,24.0,0.,24.0,0.,24.0
1989-08-27T01:07:20.500 ,5,1,0.,24.0,0.,24.0,0.,24.0,0.,24.0
1989-08-27T01:07:44.500 ,5,0,0.,24.0,0.,24.0,0.,24.0,0.,24.0
1989-08-27T01:08:08.500 ,6,1,0.,24.0,0.,24.0,0.,24.0,0.,24.0
1989-08-27T01:08:32.500 ,6,0,0.,24.0,0.,24.0,0.,24.0,0.,24.0
1989-08-27T01:08:56.500 ,7,1,0.,24.0,0.,24.0,0.,24.0,0.,24.0
1989-08-27T01:09:20.500 ,7,0,0.,24.0,0.,24.0,0.,24.0,0.,24.0
1989-08-27T01:09:44.500 ,7,1,0.,24.0,0.,24.0,0.,24.0,0.,24.0
1989-08-27T01:10:08.500 ,7,0,0.,24.0,0.,24.0,0.,24.0,0.,24.0
1989-08-27T01:10:32.500 ,6,1,0.,24.0,0.,24.0,0.,24.0,0.,24.0
1989-08-27T01:10:56.500 ,6,0,0.,24.0,0.,24.0,0.,24.0,0.,24.0
1989-08-27T01:11:20.500 ,5,1,0.,24.0,0.,24.0,0.,24.0,0.,24.0
1989-08-27T01:11:44.500 ,5,0,0.,24.0,0.,24.0,0.,24.0,0.,24.0
1989-08-27T01:12:08.500 ,4,1,0.,24.0,0.,24.0,0.,24.0,0.,24.0
1989-08-27T01:12:32.500 ,4,0,0.,24.0,0.,24.0,0.,24.0,0.,24.0
1989-08-27T01:12:56.500 ,3,1,0.,24.0,0.,24.0,0.,24.0,0.,24.0
1989-08-27T01:13:20.500 ,3,0,0.,24.0,0.,24.0,0.,24.0,0.,24.0
1989-08-27T01:13:44.500 ,2,1,0.,24.0,0.,24.0,0.,24.0,0.,24.0
1989-08-27T01:14:08.500 ,2,0,0.,24.0,0.,24.0,0.,24.0,0.,24.0
1989-08-27T01:14:32.500 ,1,1,0.,24.0,0.,24.0,0.,24.0,0.,24.0
1989-08-27T01:14:56.500 ,1,0,0.,24.0,0.,24.0,0.,24.0,0.,24.0
1989-08-27T01:15:20.500 ,0,1,0.,24.0,0.,24.0,0.,24.0,0.,24.0
1989-08-27T01:15:44.500 ,0,0,0.,24.0,0.,24.0,0.,24.0,0.,24.0
1989-08-27T01:16:08.500 ,0,1,0.,24.0,0.,24.0,0.,24.0,0.,24.0
1989-08-27T01:16:32.500 ,0,0,0.,24.0,0.,24.0,0.,24.0,0.,24.0
1989-08-27T01:16:56.500 ,1,1,0.,24.0,0.,24.0,0.,24.0,0.,24.0
1989-08-27T01:17:20.500 ,1,0,0.,24.0,0.,24.0,0.,24.0,0.,24.0
1989-08-27T01:17:44.500 ,2,1,0.,24.0,0.,24.0,0.,24.0,0.,24.0
1989-08-27T01:18:08.500 ,2,0,0.,24.0,0.,24.0,0.,24.0,0.,24.0
1989-08-27T01:18:32.500 ,3,1,0.,24.0,0.,24.0,0.,24.0,0.,24.0
1989-08-27T01:18:56.500 ,3,0,0.,24.0,0.,24.0,0.,24.0,0.,24.0
1989-08-27T01:19:20.500 ,4,1,0.,24.0,0.,24.0,0.,24.0,0.,24.0
1989-08-27T01:19:44.500 ,4,0,0.,24.0,0.,24.0,0.,24.0,0.,24.0
1989-08-27T01:20:08.500 ,5,1,0.,24.0,0.,24.0,0.,24.0,0.,24.0
1989-08-27T01:20:32.500 ,5,0,0.,24.0,0.,24.0,0.,24.0,0.,24.0
1989-08-27T01:20:56.500 ,6,1,0.,24.0,0.,24.0,0.,24.0,0.,24.0
1989-08-27T01:21:20.500 ,6,0,0.,24.0,0.,24.0,0.,24.0,0.,24.0
1989-08-27T01:21:44.500 ,7,1,0.,24.0,0.,24.0,0.,24.0,0.,24.0
1989-08-27T01:22:08.500 ,7,0,0.,24.0,0.,24.0,0.,24.0,0.,24.0
1989-08-27T01:22:32.500 ,7,1,0.,24.0,0.,24.0,0.,24.0,0.,24.0
1989-08-27T01:22:56.500 ,7,0,0.,24.0,0.,24.0,0.,24.0,0.,24.0
1989-08-27T01:23:20.500 ,6,1,0.,24.0,0.,24.0,0.,24.0,0.,24.0
1989-08-27T01:23:44.500 ,6,0,0.,24.0,0.,24.0,0.,24.0,0.,24.0
1989-08-27T01:24:08.500 ,5,1,0.,24.0,0.,24.0,0.,24.0,0.,24.0
1989-08-27T01:24:32.500 ,5,0,0.,24.0,0.,24.0,0.,24.0,0.,24.0
1989-08-27T01:24:56.500 ,4,1,0.,24.0,0.,24.0,0.,24.0,0.,24.0
1989-08-27T01:25:20.500 ,4,0,0.,24.0,0.,24.0,0.,24.0,0.,24.0
1989-08-27T01:25:44.500 ,3,1,0.,24.0,0.,24.0,0.,24.0,0.,24.0
1989-08-27T01:26:08.500 ,3,0,0.,24.0,0.,24.0,0.,24.0,0.,24.0
1989-08-27T01:26:32.500 ,2,1,0.,24.0,0.,24.0,0.,24.0,0.,24.0
1989-08-27T01:26:56.500 ,2,0,0.,24.0,0.,24.0,0.,24.0,0.,24.0
1989-08-27T01:27:20.500 ,1,1,0.,24.0,0.,24.0,0.,24.0,0.,24.0
1989-08-27T01:27:44.500 ,1,0,0.,24.0,0.,24.0,0.,24.0,0.,24.0
1989-08-27T01:28:08.500 ,0,1,0.,24.0,0.,24.0,0.,24.0,0.,24.0
1989-08-27T01:28:32.500 ,0,0,0.,24.0,0.,24.0,0.,24.0,0.,24.0
1989-08-27T01:28:56.500 ,0,1,0.,24.0,0.,24.0,0.,24.0,0.,24.0
1989-08-27T01:29:20.500 ,0,0,0.,24.0,0.,24.0,0.,24.0,0.,24.0
1989-08-27T01:29:44.500 ,1,1,0.,24.0,0.,24.0,0.,24.0,0.,24.0
1989-08-27T01:30:08.500 ,1,0,0.,24.0,0.,24.0,0.,24.0,0.,24.0
1989-08-27T01:30:32.500 ,2,1,0.,24.0,0.,24.0,0.,24.0,0.,24.0
1989-08-27T01:30:56.500 ,2,0,0.,24.0,0.,24.0,0.,24.0,0.,24.0
1989-08-27T01:31:20.500 ,3,1,0.,24.0,0.,24.0,0.,24.0,0.,24.0
1989-08-27T01:31:44.500 ,3,0,0.,24.0,0.,24.0,0.,24.0,0.,24.0
1989-08-27T01:32:08.500 ,4,1,0.,24.0,0.,24.0,0.,24.0,0.,24.0
1989-08-27T01:32:32.500 ,4,0,0.,24.0,0.,24.0,0.,24.0,0.,24.0
1989-08-27T01:32:56.500 ,5,1,0.,24.0,0.,24.0,0.,24.0,0.,24.0
1989-08-27T01:33:20.500 ,5,0,0.,24.0,0.,24.0,0.,24.0,0.,24.0
1989-08-27T01:33:44.500 ,6,1,0.,24.0,0.,24.0,0.,24.0,0.,24.0
1989-08-27T01:34:08.500 ,6,0,0.,24.0,0.,24.0,0.,24.0,0.,24.0
1989-08-27T01:34:32.500 ,7,1,0.,24.0,0.,24.0,0.,24.0,0.,24.0
1989-08-27T01:34:56.500 ,7,0,0.,24.0,0.,24.0,0.,24.0,0.,24.0
1989-08-27T01:35:20.500 ,7,1,0.,24.0,0.,24.0,0.,24.0,0.,24.0
1989-08-27T01:35:44.500 ,7,0,0.,24.0,0.,24.0,0.,24.0,0.,24.0
1989-08-27T01:36:08.500 ,6,1,0.,24.0,0.,24.0,0.,24.0,0.,24.0
1989-08-27T01:36:32.500 ,6,0,0.,24.0,0.,24.0,0.,24.0,0.,24.0
1989-08-27T01:36:56.500 ,5,1,0.,24.0,0.,24.0,0.,24.0,0.,24.0
1989-08-27T01:37:20.500 ,5,0,0.,24.0,0.,24.0,0.,24.0,0.,24.0
1989-08-27T01:37:44.500 ,4,1,0.,24.0,0.,24.0,0.,24.0,0.,24.0
1989-08-27T01:38:08.500 ,4,0,0.,24.0,0.,24.0,0.,24.0,0.,24.0
1989-08-27T01:38:32.500 ,3,1,0.,24.0,0.,24.0,0.,24.0,0.,24.0
1989-08-27T01:38:56.500 ,3,0,0.,24.0,0.,24.0,0.,24.0,0.,24.0
1989-08-27T01:39:20.500 ,2,1,0.,24.0,0.,24.0,0.,24.0,0.,24.0
1989-08-27T01:39:44.500 ,2,0,0.,24.0,0.,24.0,0.,24.0,0.,24.0
1989-08-27T01:40:08.500 ,1,1,0.,24.0,0.,24.0,0.,24.0,0.,24.0
1989-08-27T01:40:32.500 ,1,0,0.,24.0,0.,24.0,0.,24.0,0.,24.0
1989-08-27T01:40:56.500 ,0,1,0.,24.0,0.,24.0,0.,24.0,0.,24.0
1989-08-27T01:41:20.500 ,0,0,0.,24.0,0.,24.0,0.,24.0,0.,24.0
1989-08-27T01:41:44.500 ,0,1,0.,24.0,0.,24.0,0.,24.0,0.,24.0
1989-08-27T01:42:08.500 ,0,0,0.,24.0,0.,24.0,0.,24.0,0.,24.0
1989-08-27T01:42:32.500 ,1,1,0.,24.0,0.,24.0,0.,24.0,0.,24.0
1989-08-27T01:42:56.500 ,1,0,0.,24.0,0.,24.0,0.,24.0,0.,24.0
1989-08-27T01:43:20.500 ,2,1,0.,24.0,0.,24.0,0.,24.0,0.,24.0
1989-08-27T01:43:44.500 ,2,0,0.,24.0,0.,24.0,0.,24.0,0.,24.0
1989-08-27T01:44:08.500 ,3,1,0.,24.0,0.,24.0,0.,24.0,0.,24.0
1989-08-27T01:44:32.500 ,3,0,0.,24.0,0.,24.0,0.,24.0,0.,24.0
1989-08-27T01:44:56.500 ,4,1,0.,24.0,0.,24.0,0.,24.0,0.,24.0
1989-08-27T01:45:20.500 ,4,0,0.,24.0,0.,24.0,0.,24.0,0.,24.0
1989-08-27T01:45:44.500 ,5,1,0.,24.0,0.,24.0,0.,24.0,0.,24.0
1989-08-27T01:46:08.500 ,5,0,0.,24.0,0.,24.0,0.,24.0,0.,24.0
1989-08-27T01:46:32.500 ,6,1,0.,24.0,0.,24.0,0.,24.0,0.,24.0
1989-08-27T01:46:56.500 ,6,0,0.,24.0,0.,24.0,0.,24.0,0.,24.0
1989-08-27T01:47:20.500 ,7,1,0.,24.0,0.,24.0,0.,24.0,0.,24.0
1989-08-27T01:47:44.500 ,7,0,0.,24.0,0.,24.0,0.,24.0,0.,24.0
1989-08-27T01:48:08.500 ,7,1,0.,24.0,0.,24.0,0.,24.0,0.,24.0
1989-08-27T01:48:32.500 ,7,0,0.,24.0,0.,24.0,0.,24.0,0.,24.0
1989-08-27T01:48:56.500 ,6,1,0.,24.0,0.,24.0,0.,24.0,0.,24.0
1989-08-27T01:49:20.500 ,6,0,0.,24.0,0.,24.0,0.,24.0,0.,24.0
1989-08-27T01:49:44.500 ,5,1,0.,24.0,0.,24.0,0.,24.0,0.,24.0
1989-08-27T01:50:08.500 ,5,0,0.,24.0,0.,24.0,0.,24.0,0.,24.0
1989-08-27T01:50:32.500 ,4,1,0.,24.0,0.,24.0,0.,24.0,0.,24.0
1989-08-27T01:50:56.500 ,4,0,0.,24.0,0.,24.0,0.,24.0,0.,24.0
1989-08-27T01:51:20.500 ,3,1,0.,24.0,0.,24.0,0.,24.0,0.,24.0
1989-08-27T01:51:44.500 ,3,0,0.,24.0,0.,24.0,0.,24.0,0.,24.0
1989-08-27T01:52:08.500 ,2,1,0.,24.0,0.,24.0,0.,24.0,0.,24.0
1989-08-27T01:52:32.500 ,2,0,0.,24.0,0.,24.0,0.,24.0,0.,24.0
1989-08-27T01:52:56.500 ,1,1,0.,24.0,0.,24.0,0.,24.0,0.,24.0
1989-08-27T01:53:20.500 ,1,0,0.,24.0,0.,24.0,0.,24.0,0.,24.0
1989-08-27T01:53:44.500 ,0,1,0.,24.0,0.,24.0,0.,24.0,0.,24.0
1989-08-27T01:54:08.500 ,0,0,0.,24.0,0.,24.0,0.,24.0,0.,24.0
1989-08-27T01:54:32.500 ,0,1,0.,24.0,0.,24.0,0.,24.0,0.,24.0
1989-08-27T01:54:56.500 ,0,0,0.,24.0,0.,24.0,0.,24.0,0.,24.0
1989-08-27T01:55:20.500 ,1,1,0.,24.0,0.,24.0,0.,24.0,0.,24.0
1989-08-27T01:55:44.500 ,1,0,0.,24.0,0.,24.0,0.,24.0,0.,24.0
1989-08-27T01:56:08.500 ,2,1,0.,24.0,0.,24.0,0.,24.0,0.,24.0
1989-08-27T01:56:32.500 ,2,0,0.,24.0,0.,24.0,0.,24.0,0.,24.0
1989-08-27T01:56:56.500 ,3,1,0.,24.0,0.,24.0,0.,24.0,0.,24.0
1989-08-27T01:57:20.500 ,3,0,0.,24.0,0.,24.0,0.,24.0,0.,24.0
1989-08-27T01:57:44.500 ,4,1,0.,24.0,0.,24.0,0.,24.0,0.,24.0
1989-08-27T01:58:08.500 ,4,0,0.,24.0,0.,24.0,0.,24.0,0.,24.0
1989-08-27T01:58:32.500 ,5,1,0.,24.0,0.,24.0,0.,24.0,0.,24.0
1989-08-27T01:58:56.500 ,5,0,0.,24.0,0.,24.0,0.,24.0,0.,24.0
1989-08-27T01:59:20.500 ,6,1,0.,24.0,0.,24.0,0.,24.0,0.,24.0
1989-08-27T01:59:44.500 ,6,0,0.,24.0,0.,24.0,0.,24.0,0.,24.0
1989-08-27T02:00:08.500 ,7,1,0.,24.0,0.,24.0,0.,24.0,0.,24.0
1989-08-27T02:00:32.500 ,7,0,0.,24.0,0.,24.0,0.,24.0,0.,24.0
1989-08-27T02:00:56.500 ,7,1,0.,24.0,0.,24.0,0.,24.0,0.,24.0
1989-08-27T02:01:20.500 ,7,0,0.,24.0,0.,24.0,0.,24.0,0.,24.0
1989-08-27T02:01:44.500 ,6,1,0.,24.0,0.,24.0,0.,24.0,0.,24.0
1989-08-27T02:02:08.500 ,6,0,0.,24.0,0.,24.0,0.,24.0,0.,24.0
1989-08-27T02:02:32.500 ,5,1,0.,24.0,0.,24.0,0.,24.0,0.,24.0
1989-08-27T02:02:56.500 ,5,0,0.,24.0,0.,24.0,0.,24.0,0.,24.0
1989-08-27T02:03:20.500 ,4,1,0.,24.0,0.,24.0,0.,24.0,0.,24.0
1989-08-27T02:03:44.500 ,4,0,0.,24.0,0.,24.0,0.,24.0,0.,24.0
1989-08-27T02:04:08.500 ,3,1,0.,24.0,0.,24.0,0.,24.0,0.,24.0
1989-08-27T02:04:32.500 ,3,0,0.,24.0,0.,24.0,0.,24.0,0.,24.0
1989-08-27T02:04:56.500 ,2,1,0.,24.0,0.,24.0,0.,24.0,0.,24.0
1989-08-27T02:05:20.500 ,2,0,0.,24.0,0.,24.0,0.,24.0,0.,24.0
1989-08-27T02:05:44.500 ,1,1,0.,24.0,0.,24.0,0.,24.0,0.,24.0
1989-08-27T02:06:08.500 ,1,0,0.,24.0,0.,24.0,0.,24.0,0.,24.0
1989-08-27T02:06:32.500 ,0,1,0.,24.0,0.,24.0,0.,24.0,0.,24.0
1989-08-27T02:06:56.500 ,0,0,0.,24.0,0.,24.0,0.,24.0,0.,24.0
1989-08-27T02:07:20.500 ,0,1,0.,24.0,0.,24.0,0.,24.0,0.,24.0
1989-08-27T02:07:44.500 ,0,0,0.,24.0,0.,24.0,0.,24.0,0.,24.0
1989-08-27T02:08:08.500 ,1,1,0.,24.0,0.,24.0,0.,24.0,0.,24.0
1989-08-27T02:08:32.500 ,1,0,0.,24.0,0.,24.0,0.,24.0,0.,24.0
1989-08-27T02:08:56.500 ,2,1,0.,24.0,0.,24.0,0.,24.0,0.,24.0
1989-08-27T02:09:20.500 ,2,0,0.,24.0,0.,24.0,0.,24.0,0.,24.0
1989-08-27T02:09:44.500 ,3,1,0.,24.0,0.,24.0,0.,24.0,0.,24.0
1989-08-27T02:10:08.500 ,3,0,0.,24.0,0.,24.0,0.,24.0,0.,24.0
1989-08-27T02:10:32.500 ,4,1,0.,24.0,0.,24.0,0.,24.0,0.,24.0
1989-08-27T02:10:56.500 ,4,0,0.,24.0,0.,24.0,0.,24.0,0.,24.0
1989-08-27T02:11:20.500 ,5,1,0.,24.0,0.,24.0,0.,24.0,0.,24.0
1989-08-27T02:11:44.500 ,5,0,0.,24.0,0.,24.0,0.,24.0,0.,24.0
1989-08-27T02:12:08.500 ,6,1,0.,24.0,0.,24.0,0.,24.0,0.,24.0
1989-08-27T02:12:32.500 ,6,0,0.,24.0,0.,24.0,0.,24.0,0.,24.0
1989-08-27T02:12:56.500 ,7,1,0.,24.0,0.,24.0,0.,24.0,0.,24.0
1989-08-27T02:13:20.500 ,7,0,0.,24.0,0.,24.0,0.,24.0,0.,24.0
1989-08-27T02:13:44.500 ,7,1,0.,24.0,0.,24.0,0.,24.0,0.,24.0
1989-08-27T02:14:08.500 ,7,0,0.,24.0,0.,24.0,0.,24.0,0.,24.0
1989-08-27T02:14:32.500 ,6,1,0.,24.0,0.,24.0,0.,24.0,0.,24.0
1989-08-27T02:14:56.500 ,6,0,0.,24.0,0.,24.0,0.,24.0,0.,24.0
1989-08-27T02:15:20.500 ,5,1,0.,24.0,0.,24.0,0.,24.0,0.,24.0
1989-08-27T02:15:44.500 ,5,0,0.,24.0,0.,24.0,0.,24.0,0.,24.0
1989-08-27T02:16:08.500 ,4,1,0.,24.0,0.,24.0,0.,24.0,0.,24.0
1989-08-27T02:16:32.500 ,4,0,0.,24.0,0.,24.0,0.,24.0,0.,24.0
1989-08-27T02:16:56.500 ,3,1,0.,24.0,0.,24.0,0.,24.0,0.,24.0
1989-08-27T02:17:20.500 ,3,0,0.,24.0,0.,24.0,0.,24.0,0.,24.0
1989-08-27T02:17:44.500 ,2,1,0.,24.0,0.,24.0,0.,24.0,0.,24.0
1989-08-27T02:18:08.500 ,2,0,0.,24.0,0.,24.0,0.,24.0,0.,24.0
1989-08-27T02:18:32.500 ,1,1,0.,24.0,0.,24.0,0.,24.0,0.,24.0
1989-08-27T02:18:56.500 ,1,0,0.,24.0,0.,24.0,0.,24.0,0.,24.0
1989-08-27T02:19:20.500 ,0,1,0.,24.0,0.,24.0,0.,24.0,0.,24.0
1989-08-27T02:19:44.500 ,0,0,0.,24.0,0.,24.0,0.,24.0,0.,24.0
1989-08-27T02:20:08.500 ,0,1,0.,24.0,0.,24.0,0.,24.0,0.,24.0
1989-08-27T02:20:32.500 ,0,0,0.,24.0,0.,24.0,0.,24.0,0.,24.0
1989-08-27T02:20:56.490 ,1,1,0.,24.0,0.,24.0,0.,24.0,0.,24.0
1989-08-27T02:21:20.490 ,1,0,0.,24.0,0.,24.0,0.,24.0,0.,24.0
1989-08-27T02:21:44.490 ,2,1,0.,24.0,0.,24.0,0.,24.0,0.,24.0
1989-08-27T02:22:08.490 ,2,0,0.,24.0,0.,24.0,0.,24.0,0.,24.0
1989-08-27T02:22:32.490 ,3,1,0.,24.0,0.,24.0,0.,24.0,0.,24.0
1989-08-27T02:22:56.490 ,3,0,0.,24.0,0.,24.0,0.,24.0,0.,24.0
1989-08-27T02:23:20.490 ,4,1,0.,24.0,0.,24.0,0.,24.0,0.,24.0
1989-08-27T02:23:44.490 ,4,0,0.,24.0,0.,24.0,0.,24.0,0.,24.0
1989-08-27T02:24:08.490 ,5,1,0.,24.0,0.,24.0,0.,24.0,0.,24.0
1989-08-27T02:24:32.490 ,5,0,0.,24.0,0.,24.0,0.,24.0,0.,24.0
1989-08-27T02:24:56.490 ,6,1,0.,24.0,0.,24.0,0.,24.0,0.,24.0
1989-08-27T02:25:20.490 ,6,0,0.,24.0,0.,24.0,0.,24.0,0.,24.0
1989-08-27T02:25:44.490 ,7,1,0.,24.0,0.,24.0,0.,24.0,0.,24.0
1989-08-27T02:26:08.490 ,7,0,0.,24.0,0.,24.0,0.,24.0,0.,24.0
1989-08-27T02:26:32.490 ,7,1,0.,24.0,0.,24.0,0.,24.0,0.,24.0
1989-08-27T02:26:56.490 ,7,0,0.,24.0,0.,24.0,0.,24.0,0.,24.0
1989-08-27T02:27:20.490 ,6,1,0.,24.0,0.,24.0,0.,24.0,0.,24.0
1989-08-27T02:27:44.490 ,6,0,0.,24.0,0.,24.0,0.,24.0,0.,24.0
1989-08-27T02:28:08.490 ,5,1,0.,24.0,0.,24.0,0.,24.0,0.,24.0
1989-08-27T02:28:32.490 ,5,0,0.,24.0,0.,24.0,0.,24.0,0.,24.0
1989-08-27T02:28:56.490 ,4,1,0.,24.0,0.,24.0,0.,24.0,0.,24.0
1989-08-27T02:29:20.490 ,4,0,0.,24.0,0.,24.0,0.,24.0,0.,24.0
1989-08-27T02:29:44.490 ,3,1,0.,24.0,0.,24.0,0.,24.0,0.,24.0
1989-08-27T02:30:08.490 ,3,0,0.,24.0,0.,24.0,0.,24.0,0.,24.0
1989-08-27T02:30:32.490 ,2,1,0.,24.0,0.,24.0,0.,24.0,0.,24.0
1989-08-27T02:30:56.490 ,2,0,0.,24.0,0.,24.0,0.,24.0,0.,24.0
1989-08-27T02:31:20.490 ,1,1,0.,24.0,0.,24.0,0.,24.0,0.,24.0
1989-08-27T02:31:44.490 ,1,0,0.,24.0,0.,24.0,0.,24.0,0.,24.0
1989-08-27T02:32:08.490 ,0,1,0.,24.0,0.,24.0,0.,24.0,0.,24.0
1989-08-27T02:32:32.490 ,0,0,0.,24.0,0.,24.0,0.,24.0,0.,24.0
1989-08-27T02:32:56.490 ,0,1,0.,24.0,0.,24.0,0.,24.0,0.,24.0
1989-08-27T02:33:20.490 ,0,0,0.,24.0,0.,24.0,0.,24.0,0.,24.0
1989-08-27T02:33:44.490 ,1,1,0.,24.0,0.,24.0,0.,24.0,0.,24.0
1989-08-27T02:34:08.490 ,1,0,0.,24.0,0.,24.0,0.,24.0,0.,24.0
1989-08-27T02:34:32.490 ,2,1,0.,24.0,0.,24.0,0.,24.0,0.,24.0